User: anonymous   Login
Location: Unspecified
(0.0000°N, 0.0000°E)
Time: 09:02:55
(UTC+01:00)
Language:

Cosmos 1538 Rocket - Orbit

View from above orbital plane
View from above orbital plane
View from above satellite
View from above satellite

Ground track
Ground track

The orbit data is extracted from the following two-line orbital elements,

1 14760U 84019B   17081.84183694 -.00000071 +00000-0 -15517-4 0  9993
2 14760 074.0405 280.2446 0027731 163.1654 276.4449 14.35810793731190
Epoch (UTC): 22 March 2017 20:12:14
Eccentricity: 0.0027731
inclination: 74.0405°
perigee height: 752 km
apogee height: 792 km
right ascension of ascending node: 280.2446°
argument of perigee: 163.1654°
revolutions per day: 14.35810793
mean anomaly at epoch: 276.4449°
orbit number at epoch: 73119

The dashed part of the orbit path shows where the satellite is in the earth's shadow,  

DLR